sat.trackr.live / text

‹ back to catalog

ONEWEB-0380

NORAD 49306 · 2021-090AD

PAYLOAD ACTIVE UNKNOWN

§ Identity

Operator
Country
UK
Launch date
2021-10-14
Launch site
VOSTO
Launch vehicle
Mass (kg)
RCS (m²)

Purposes: comms

External: N2YO · Heavens-Above · Gunter

§ Orbital elements

Epoch: 2026-05-24T21:49:29.256960Z

Period
109.11 min
Inclination
87.9150°
Eccentricity
0.0001947
Mean motion
13.19724638 rev/d
Perigee alt
1,184.3 km
Apogee alt
1,187.2 km
Semi-major
7,563.9 km
B*
-1.2719e-4
RAAN
309.6125°
Arg perigee
98.7732°
Mean anomaly
261.3621°
Rev number
22,335

§ Raw data

ONEWEB-03801 49306U 21090AD  26144.90936640 -.00000038  00000+0 -12719-3 0  99932 49306  87.9150 309.6125 0001947  98.7732 261.3621 13.19724638223357

JSON: /api/v1/satellites/49306 · /tle

For live sub-satellite position, see the globe view (requires WebGL).

§ Visibility from observer

Set your observer location to see the next 7 days of passes ≥ 10°. The values pass through the URL so the page stays shareable.

No JS? Fill the form by hand. The geolocation button needs JavaScript.